�N����,����,�~����,�C��,���x,�C��,����,���ϕ���,�ő�u�ԕ���,�ő厞����,���˗�,�I�_���x,�n�����x,�ő啗���N��,DTYPE
"21/02/25","00:10",0.0,1.9,74.6,1020.1,321.4,5.5,6.6,329.5,0.00,-2.1,130.0,"00:05:22",1
"21/02/25","00:20",0.0,2.1,74.6,1020.4,326.5,5.6,6.7,326.9,0.00,-1.9,130.0,"00:10:26",1
"21/02/25","00:30",0.0,2.4,74.4,1020.1,322.3,4.9,6.4,339.5,0.00,-1.6,130.0,"00:20:56",1
"21/02/25","00:40",0.0,2.3,74.7,1020.4,314.1,2.5,3.5,323.7,0.00,-1.7,130.0,"00:37:12",1
"21/02/25","00:50",0.0,2.1,75.3,1020.1,328.1,3.1,4.9,333.6,0.00,-1.8,130.0,"00:45:34",1
"21/02/25","01:00",0.0,1.8,76.1,1020.1,325.7,3.4,4.5,324.6,0.00,-1.9,130.0,"00:55:12",1
"21/02/25","01:10",0.0,1.9,76.9,1020.1,317.8,2.8,4.2,327.1,0.00,-1.7,130.0,"01:04:08",1
"21/02/25","01:20",0.0,1.7,77.4,1020.1,302.6,2.1,3.3,319.1,0.00,-1.8,130.0,"01:19:52",1
"21/02/25","01:30",0.0,1.6,78.1,1020.1,320.5,3.7,4.7,319.7,0.00,-1.8,130.0,"01:22:24",1
"21/02/25","01:40",0.0,1.5,78.5,1019.9,316.0,2.3,4.9,316.6,0.00,-1.8,130.0,"01:31:36",1
"21/02/25","01:50",0.0,1.2,79.0,1019.9,321.9,2.0,2.6,325.5,0.00,-2.0,130.0,"01:47:12",1
"21/02/25","02:00",0.0,1.2,79.8,1019.7,323.0,2.8,3.7,328.8,0.00,-1.9,130.0,"01:55:44",1
"21/02/25","02:10",0.0,0.8,80.2,1019.7,299.3,1.6,2.6,330.2,0.00,-2.2,130.0,"02:00:08",1
"21/02/25","02:20",0.0,0.4,80.9,1019.2,293.8,1.7,2.7,306.6,0.00,-2.5,130.0,"02:12:00",1
"21/02/25","02:30",0.0,0.3,81.7,1019.4,295.1,1.5,2.6,326.7,0.00,-2.4,130.0,"02:22:32",1
"21/02/25","02:40",0.0,0.2,82.6,1019.4,308.5,2.2,2.7,311.5,0.00,-2.4,130.0,"02:38:00",1
"21/02/25","02:50",0.0,-0.2,83.4,1019.4,315.8,1.5,2.4,327.5,0.00,-2.6,130.0,"02:40:08",1
"21/02/25","03:00",0.0,-0.2,84.4,1019.2,270.7,0.8,1.3,275.4,0.00,-2.5,130.0,"02:59:44",1
"21/02/25","03:10",0.0,-0.2,84.9,1019.4,290.6,1.6,2.1,308.0,0.00,-2.4,130.0,"03:07:20",1
"21/02/25","03:20",0.0,-0.2,85.6,1019.2,348.8,1.2,2.0,336.2,0.00,-2.3,130.0,"03:12:00",1
"21/02/25","03:30",0.0,-0.6,86.3,1019.0,335.7,1.1,2.8,340.9,0.00,-2.6,130.0,"03:20:56",1
"21/02/25","03:40",0.0,-0.8,86.8,1019.4,295.4,0.3,1.1,330.1,0.00,-2.7,130.0,"03:36:32",1
"21/02/25","03:50",0.0,-0.9,87.3,1019.4,324.2,1.2,1.9,343.1,0.00,-2.7,130.0,"03:43:44",1
"21/02/25","04:00",0.0,-1.0,87.8,1019.2,333.5,0.7,1.7,323.5,0.00,-2.7,130.0,"03:59:20",1
"21/02/25","04:10",0.0,-1.2,88.3,1019.2,336.5,0.5,1.7,305.4,0.00,-2.8,130.0,"04:08:48",1
"21/02/25","04:20",0.0,-1.3,88.7,1019.2,290.9,1.2,1.4,299.9,0.00,-2.9,130.0,"04:10:24",1
"21/02/25","04:30",0.0,-1.2,89.1,1019.2,304.3,1.5,1.8,316.7,0.00,-2.7,130.0,"04:27:36",1
"21/02/25","04:40",0.0,-1.4,89.4,1019.4,316.9,1.6,2.4,335.4,0.00,-2.9,130.0,"04:37:04",1
"21/02/25","04:50",0.0,-1.7,89.8,1018.7,325.6,1.8,2.2,319.3,0.00,-3.1,130.0,"04:46:24",1
"21/02/25","05:00",0.0,-1.6,90.2,1019.0,315.0,1.8,2.5,322.5,0.00,-3.0,130.0,"04:56:16",1
"21/02/25","05:10",0.0,-1.6,90.6,1019.0,310.0,2.0,2.4,310.7,0.00,-2.9,130.0,"05:08:56",1
"21/02/25","05:20",0.0,-1.4,90.8,1019.0,299.4,1.8,2.5,310.2,0.00,-2.7,130.0,"05:18:24",1
"21/02/25","05:30",0.0,-1.3,91.1,1019.2,327.8,1.8,2.9,324.6,0.00,-2.5,130.0,"05:24:48",1
"21/02/25","05:40",0.0,-1.6,91.4,1019.4,312.5,1.8,2.8,323.9,0.00,-2.8,130.0,"05:36:08",1
"21/02/25","05:50",0.0,-1.6,91.8,1019.4,294.9,1.7,2.5,310.1,0.00,-2.7,130.0,"05:48:08",1
"21/02/25","06:00",0.0,-1.4,91.9,1019.4,299.3,1.6,2.8,310.3,0.00,-2.5,130.0,"05:50:16",1
"21/02/25","06:10",0.0,-1.3,92.2,1019.2,307.6,1.7,2.6,312.3,0.00,-2.4,130.0,"06:06:08",1
"21/02/25","06:20",0.0,-1.4,92.3,1019.4,330.3,1.7,2.6,316.5,0.00,-2.4,130.0,"06:10:08",1
"21/02/25","06:30",0.0,-1.7,92.6,1019.7,329.4,0.8,2.0,343.4,0.00,-2.7,130.0,"06:20:24",1
"21/02/25","06:40",0.0,-2.0,92.9,1019.4,294.6,1.0,2.0,315.1,0.00,-3.0,130.0,"06:38:16",1
"21/02/25","06:50",0.0,-1.9,93.0,1019.7,313.9,1.7,2.8,324.8,0.00,-2.8,130.0,"06:49:44",1
"21/02/25","07:00",0.0,-2.1,93.3,1019.0,322.6,1.8,2.4,319.3,0.00,-3.0,130.0,"06:50:32",1
"21/02/25","07:10",0.0,-1.8,93.6,1019.2,324.3,1.6,2.2,320.4,0.00,-2.7,130.0,"07:02:56",1
"21/02/25","07:20",0.0,-1.2,93.7,1019.2,278.8,0.7,1.0,303.9,0.00,-2.0,130.0,"07:10:08",1
"21/02/25","07:30",0.0,-0.5,93.7,1019.2,280.4,0.5,1.0,287.0,0.01,-1.3,130.0,"07:20:08",1
"21/02/25","07:40",0.0,0.3,93.7,1019.7,304.8,1.5,2.0,312.8,0.01,-0.6,130.0,"07:31:58",1
"21/02/25","07:50",0.0,1.1,93.6,1019.7,307.8,1.6,2.0,324.2,0.03,0.2,130.0,"07:40:16",1
"21/02/25","08:00",0.0,1.9,93.5,1020.1,302.3,1.1,1.9,313.8,0.04,1.0,130.0,"07:59:08",1
"21/02/25","08:10",0.0,2.5,93.1,1020.6,320.9,1.2,2.0,349.4,0.07,1.5,130.0,"08:03:04",1
"21/02/25","08:20",0.0,3.1,92.7,1020.8,290.7,0.6,1.4,312.5,0.10,2.1,130.0,"08:10:32",1
"21/02/25","08:30",0.0,2.8,92.0,1021.3,135.7,0.6,1.1,108.3,0.13,1.7,130.0,"08:27:24",1
"21/02/25","08:40",0.0,3.4,91.2,1021.8,307.0,0.7,1.4,104.3,0.15,2.1,130.0,"08:33:42",1
"21/02/25","08:50",0.0,4.0,89.6,1022.3,285.4,0.7,0.9,291.7,0.18,2.5,130.0,"08:46:26",1
"21/02/25","09:00",0.0,3.9,87.9,1022.3,61.4,1.0,2.1,109.9,0.21,2.1,130.0,"08:53:26",1
"21/02/25","09:10",0.0,4.4,84.6,1022.5,157.6,0.8,1.7,17.1,0.24,2.1,130.0,"09:00:54",1
"21/02/25","09:20",0.0,5.1,81.3,1022.5,253.7,0.7,1.2,258.9,0.27,2.2,130.0,"09:14:00",1
"21/02/25","09:30",0.0,5.6,76.3,1023.0,270.7,0.8,2.1,210.5,0.30,1.8,130.0,"09:21:20",1
"21/02/25","09:40",0.0,5.9,70.8,1022.7,171.1,1.0,2.9,129.0,0.32,1.1,130.0,"09:37:42",1
"21/02/25","09:50",0.0,5.8,68.4,1022.7,179.7,1.5,3.1,157.6,0.35,0.5,130.0,"09:43:14",1
"21/02/25","10:00",0.0,5.8,66.3,1022.0,64.6,1.1,2.1,117.7,0.37,0.0,130.0,"09:51:38",1
"21/02/25","10:10",0.0,6.4,64.2,1022.0,291.4,1.5,2.5,329.5,0.39,0.2,130.0,"10:09:04",1
"21/02/25","10:20",0.0,6.7,61.9,1021.8,277.8,1.0,2.5,125.7,0.42,0.0,130.0,"10:16:38",1
"21/02/25","10:30",0.0,7.2,59.5,1021.8,267.7,1.8,3.5,240.3,0.44,-0.1,130.0,"10:28:20",1
"21/02/25","10:40",0.0,8.0,57.9,1021.8,262.0,1.2,2.9,236.7,0.46,0.3,130.0,"10:32:12",1
"21/02/25","10:50",0.0,8.1,54.1,1022.0,246.9,1.6,2.8,247.6,0.47,-0.6,130.0,"10:47:28",1
"21/02/25","11:00",0.0,8.3,52.9,1021.8,200.5,1.5,2.9,126.0,0.49,-0.7,130.0,"10:56:00",1
"21/02/25","11:10",0.0,8.7,51.0,1021.3,229.0,1.1,2.4,187.5,0.50,-0.8,130.0,"11:02:12",1
"21/02/25","11:20",0.0,8.9,51.5,1020.8,175.7,1.7,3.4,241.6,0.50,-0.5,130.0,"11:16:08",1
"21/02/25","11:30",0.0,9.0,51.0,1021.1,188.2,1.6,3.9,94.7,0.52,-0.5,130.0,"11:28:12",1
"21/02/25","11:40",0.0,8.7,48.7,1020.8,139.9,1.6,3.1,113.7,0.48,-1.5,130.0,"11:32:34",1
"21/02/25","11:50",0.0,9.1,48.8,1020.6,240.1,2.0,3.7,241.1,0.52,-1.1,130.0,"11:45:12",1
"21/02/25","12:00",0.0,9.5,46.7,1020.6,173.2,1.6,3.2,232.5,0.47,-1.3,130.0,"11:50:16",1
"21/02/25","12:10",0.0,9.2,46.3,1020.4,101.6,2.0,3.5,94.6,0.50,-1.7,130.0,"12:06:38",1
"21/02/25","12:20",0.0,9.4,47.1,1020.8,148.7,1.6,2.8,169.9,0.38,-1.3,130.0,"12:11:12",1
"21/02/25","12:30",0.0,10.1,45.8,1019.9,226.9,1.0,2.1,200.2,0.39,-1.0,130.0,"12:28:16",1
"21/02/25","12:40",0.0,10.5,43.1,1019.4,217.0,1.3,3.4,117.7,0.42,-1.5,130.0,"12:38:00",1
"21/02/25","12:50",0.0,10.5,41.9,1019.2,208.8,1.6,3.3,239.7,0.44,-1.9,130.0,"12:41:52",1
"21/02/25","13:00",0.0,10.9,40.6,1019.0,102.6,1.0,2.6,210.5,0.48,-1.9,130.0,"12:50:02",1
"21/02/25","13:10",0.0,11.4,40.3,1019.2,220.0,2.0,4.9,218.1,0.54,-1.6,130.0,"13:06:16",1
"21/02/25","13:20",0.0,11.8,38.5,1018.7,222.5,1.3,2.9,225.9,0.54,-1.8,130.0,"13:17:52",1
"21/02/25","13:30",0.0,11.6,38.0,1018.7,160.1,1.8,2.9,121.6,0.53,-2.2,130.0,"13:26:08",1
"21/02/25","13:40",0.0,11.7,35.6,1018.2,112.3,1.3,3.5,330.0,0.51,-3.0,130.0,"13:39:44",1
"21/02/25","13:50",0.0,12.4,36.1,1017.8,203.6,1.5,3.5,329.0,0.47,-2.2,130.0,"13:40:40",1
"21/02/25","14:00",0.0,12.8,34.5,1017.5,217.1,1.5,3.1,136.7,0.48,-2.4,130.0,"13:52:40",1
"21/02/25","14:10",0.0,12.5,34.6,1017.5,242.1,1.8,3.2,223.6,0.40,-2.7,130.0,"14:08:16",1
"21/02/25","14:20",0.0,12.9,34.7,1017.5,333.6,1.1,3.2,324.2,0.45,-2.3,130.0,"14:11:20",1
"21/02/25","14:30",0.0,12.9,35.0,1017.3,181.7,2.0,3.4,181.9,0.42,-2.1,130.0,"14:26:48",1
"21/02/25","14:40",0.0,12.9,34.2,1017.1,119.0,1.6,2.6,133.5,0.40,-2.5,130.0,"14:33:52",1
"21/02/25","14:50",0.0,13.5,34.9,1016.8,180.7,1.0,2.7,122.5,0.37,-1.7,130.0,"14:42:16",1
"21/02/25","15:00",0.0,13.2,33.2,1016.8,115.0,1.2,2.4,126.5,0.34,-2.6,130.0,"14:57:44",1
"21/02/25","15:10",0.0,12.8,34.4,1016.8,113.1,1.6,3.5,108.9,0.29,-2.5,130.0,"15:03:20",1
"21/02/25","15:20",0.0,13.0,33.4,1016.6,141.4,1.3,2.9,118.7,0.27,-2.7,130.0,"15:10:08",1
"21/02/25","15:30",0.0,12.6,32.7,1016.6,162.0,1.3,3.7,139.0,0.16,-3.3,130.0,"15:22:48",1
"21/02/25","15:40",0.0,12.5,33.5,1016.8,149.8,1.2,3.5,235.3,0.14,-3.1,130.0,"15:38:56",1
"21/02/25","15:50",0.0,12.6,32.5,1017.1,203.4,1.7,3.3,237.9,0.16,-3.4,130.0,"15:40:40",1
"21/02/25","16:00",0.0,13.0,30.4,1017.3,237.6,1.2,2.2,243.4,0.20,-3.9,130.0,"15:51:20",1
"21/02/25","16:10",0.0,13.0,30.0,1017.5,183.5,1.0,2.4,116.8,0.15,-4.1,130.0,"16:06:48",1
"21/02/25","16:20",0.0,12.6,31.6,1017.3,205.6,1.0,2.0,243.2,0.08,-3.8,130.0,"16:17:04",1
"21/02/25","16:30",0.0,12.3,30.4,1017.3,244.1,1.2,2.1,239.8,0.07,-4.6,130.0,"16:20:32",1
"21/02/25","16:40",0.0,12.1,30.4,1017.1,218.5,1.6,2.6,234.3,0.05,-4.7,130.0,"16:30:16",1
"21/02/25","16:50",0.0,12.0,32.6,1017.3,225.6,1.8,3.4,232.5,0.04,-3.9,130.0,"16:43:28",1
"21/02/25","17:00",0.0,11.9,32.2,1017.1,229.7,2.0,3.7,235.2,0.03,-4.1,130.0,"16:55:50",1
"21/02/25","17:10",0.0,11.7,32.9,1017.1,248.8,1.7,3.2,239.2,0.02,-4.0,130.0,"17:03:04",1
"21/02/25","17:20",0.0,11.5,34.7,1017.1,239.3,1.0,1.8,245.7,0.01,-3.5,130.0,"17:19:22",1
"21/02/25","17:30",0.0,11.4,35.2,1017.3,264.0,1.2,1.9,249.6,0.00,-3.4,130.0,"17:23:52",1
"21/02/25","17:40",0.0,11.2,36.6,1017.1,270.1,1.0,2.0,317.0,0.00,-3.0,130.0,"17:39:50",1
"21/02/25","17:50",0.0,10.7,43.7,1017.3,320.0,2.0,2.7,321.4,0.00,-1.1,130.0,"17:49:22",1
"21/02/25","18:00",0.0,10.3,46.3,1017.3,322.9,1.8,2.5,318.1,0.00,-0.7,130.0,"17:53:52",1
"21/02/25","18:10",0.0,9.9,49.2,1017.1,325.6,2.0,2.7,309.1,0.00,-0.2,130.0,"18:01:28",1
"21/02/25","18:20",0.0,9.5,51.0,1017.3,302.4,2.3,2.9,299.7,0.00,-0.1,130.0,"18:11:52",1
"21/02/25","18:30",0.0,9.3,52.5,1017.1,317.9,2.2,3.1,313.4,0.00,0.1,130.0,"18:20:40",1
"21/02/25","18:40",0.0,9.1,54.0,1017.5,304.1,2.5,2.9,313.1,0.00,0.3,130.0,"18:33:52",1
"21/02/25","18:50",0.0,9.0,53.7,1017.8,304.7,2.5,4.1,315.1,0.00,0.2,130.0,"18:49:28",1
"21/02/25","19:00",0.0,9.0,53.9,1018.0,319.2,2.8,5.2,336.5,0.00,0.2,130.0,"18:50:24",1
"21/02/25","19:10",0.0,8.8,53.7,1017.8,293.3,2.0,3.2,314.6,0.00,0.0,130.0,"19:01:28",1
"21/02/25","19:20",0.0,8.7,52.4,1017.8,300.2,2.0,2.7,312.6,0.00,-0.5,130.0,"19:15:28",1
"21/02/25","19:30",0.0,8.5,56.7,1017.8,319.2,2.3,3.3,332.0,0.00,0.4,130.0,"19:22:32",1
"21/02/25","19:40",0.0,8.2,57.0,1017.5,282.0,1.6,2.0,293.8,0.00,0.2,130.0,"19:35:04",1
"21/02/25","19:50",0.0,8.2,57.3,1017.5,282.3,1.7,2.2,315.7,0.00,0.3,130.0,"19:48:40",1
"21/02/25","20:00",0.0,8.1,56.5,1017.3,292.0,1.8,2.6,310.1,0.00,0.0,130.0,"19:59:36",1
"21/02/25","20:10",0.0,7.7,59.9,1017.1,320.8,2.1,2.6,323.1,0.00,0.4,130.0,"20:03:52",1
"21/02/25","20:20",0.0,7.2,61.9,1017.3,301.6,1.6,2.7,318.3,0.00,0.4,130.0,"20:19:28",1
"21/02/25","20:30",0.0,7.0,62.7,1017.3,305.2,1.5,3.3,319.5,0.00,0.4,130.0,"20:20:48",1
"21/02/25","20:40",0.0,6.7,64.4,1017.1,310.9,2.6,3.6,326.4,0.00,0.5,130.0,"20:37:12",1
"21/02/25","20:50",0.0,6.7,64.4,1017.5,292.2,2.2,2.8,319.7,0.00,0.5,130.0,"20:40:56",1
"21/02/25","21:00",0.0,6.6,64.8,1017.8,296.0,1.8,2.5,311.5,0.00,0.5,130.0,"20:51:12",1
"21/02/25","21:10",0.0,6.7,64.3,1017.8,301.3,2.1,2.8,306.7,0.00,0.5,130.0,"21:05:04",1
"21/02/25","21:20",0.0,6.6,63.8,1017.3,294.6,2.2,2.7,302.3,0.00,0.3,130.0,"21:14:08",1
"21/02/25","21:30",0.0,6.5,63.8,1017.5,286.8,1.8,2.4,285.7,0.00,0.2,130.0,"21:26:32",1
"21/02/25","21:40",0.0,6.5,63.9,1017.1,309.2,2.7,3.9,318.6,0.00,0.2,130.0,"21:38:48",1
"21/02/25","21:50",0.0,6.5,63.4,1017.3,298.3,2.8,4.3,325.1,0.00,0.1,130.0,"21:44:16",1
"21/02/25","22:00",0.0,6.5,63.1,1018.0,288.1,2.3,2.9,302.3,0.00,0.0,130.0,"21:58:48",1
"21/02/25","22:10",0.0,6.5,62.5,1017.8,295.3,2.3,3.2,317.0,0.00,-0.1,130.0,"22:01:12",1
"21/02/25","22:20",0.0,6.6,61.9,1017.5,298.7,2.1,2.8,296.8,0.00,-0.1,130.0,"22:10:08",1
"21/02/25","22:30",0.0,6.5,64.2,1017.3,318.6,2.5,3.2,323.5,0.00,0.3,130.0,"22:28:00",1
"21/02/25","22:40",0.0,6.0,65.5,1017.3,301.4,1.3,2.2,314.6,0.00,0.1,130.0,"22:30:48",1
"21/02/25","22:50",0.0,5.9,65.6,1017.1,294.5,1.8,2.5,297.1,0.00,0.0,130.0,"22:43:44",1
"21/02/25","23:00",0.0,6.1,65.6,1016.8,305.1,1.8,2.5,311.0,0.00,0.2,130.0,"22:59:04",1
"21/02/25","23:10",0.0,5.7,66.7,1016.8,304.9,1.7,2.4,306.4,0.00,0.0,130.0,"23:01:12",1
"21/02/25","23:20",0.0,6.0,65.6,1016.8,292.1,2.2,3.3,299.9,0.00,0.1,130.0,"23:16:16",1
"21/02/25","23:30",0.0,6.2,64.6,1017.1,307.6,1.7,2.8,315.9,0.00,0.1,130.0,"23:28:00",1
"21/02/25","23:40",0.0,5.8,66.2,1016.8,319.0,2.0,2.7,329.8,0.00,0.0,130.0,"23:30:24",1
"21/02/25","23:50",0.0,5.7,66.4,1017.1,292.6,2.0,3.1,320.9,0.00,0.0,130.0,"23:48:56",1
"21/02/25","24:00",0.0,6.3,64.5,1017.3,315.4,2.3,3.5,332.4,0.00,0.1,130.0,"23:50:32",1
